• MPC Preparation (Info)

  • MPEC 2023-F224 : 2023 FR10

    The following Minor Planet Electronic Circular may be linked-to from your own Web pages, but must not otherwise be redistributed electronically.

    A form allowing access to any MPEC is at the bottom of this page.


    Read MPEC 2023-F223 Read MPEC 2023-F225


    M.P.E.C. 2023-F224                               Issued 2023 March 30, 02:16 UT
    
         The Minor Planet Electronic Circulars contain information on unusual
             minor planets, routine data on comets and natural satellites,
             and occasional editorial announcements.  They are published
        on behalf of Division F of the International Astronomical Union by the
              Minor Planet Center, Smithsonian Astrophysical Observatory,
                              Cambridge, MA 02138, U.S.A.
    			  
                 Prepared using the Tamkin Foundation Computer Network
    
                                  MPC@CFA.HARVARD.EDU
                URL https://www.minorplanetcenter.net/    ISSN 1523-6714
    
                                    2023 FR10                                
    
    
    Observations:
         K23F10R* C2023 03 27.44038711 58 35.985+06 34 09.79         21.89wUEF224F52
         K23F10R  C2023 03 27.45392511 58 36.607+06 34 27.25         22.60wUEF224F52
         K23F10R  C2023 03 27.46743311 58 37.212+06 34 45.08         22.37wUEF224F52
         K23F10R 3C2023 03 28.31626211 59 29.828+06 53 11.61         22.29GVEF224T14
         K23F10R 3C2023 03 28.31747311 59 29.892+06 53 13.20         22.29GVEF224T14
         K23F10R 3C2023 03 28.31868511 59 29.945+06 53 14.79         22.25GVEF224T14
         K23F10R 3C2023 03 28.31992711 59 30.005+06 53 16.36         22.31GVEF224T14
         K23F10R 3C2023 03 28.32113511 59 30.069+06 53 17.97         22.37GVEF224T14
         K23F10R 3C2023 03 28.32235111 59 30.126+06 53 19.56         22.25GVEF224T14
         K23F10R DC2023 03 28.45114 11 59 34.95 +06 55 56.7          22.0 GVEF224695
         K23F10R DC2023 03 28.45553 11 59 35.12 +06 56 03.3          22.9 GVEF224695
         K23F10R DC2023 03 29.36757 12 00 31.02 +07 15 26.5          22.2 RoEF224695
         K23F10R DC2023 03 29.37270 12 00 31.26 +07 15 32.8          22.3 RoEF224695
         K23F10R DC2023 03 29.37782 12 00 31.52 +07 15 39.3          22.2 RoEF224695
    
    Observer details:
    695 Kitt Peak.  Observer R. A. Mastaler.  2.3-m f/9 reflector + CCD.
    F52 Pan-STARRS 2, Haleakala.  Observers J. Bulger, T. Lowe, A. Schultz, I.
        Smith.  Measurers K. Chambers, S. Chastel, T. de Boer, J. Fairlamb, H.
        Gao, M. Huber, C.-C. Lin, E. Magnier, Y. Ramanjooloo, R. Wainscoat, R.
        Weryk.  1.8-m Ritchey-Chretien + CCD.
    T14 Canada-France-Hawaii Telescope, Maunakea.  Observers R. Wainscoat, L.
        Wells, E. Bertin.  Measurers R. Weryk, R. Wainscoat.  3.6-m Canada-France-
        Hawaii Telescope + CCD.
    
    Orbital elements:
    2023 FR10                                                Earth MOID = 0.2447 AU
    Epoch 2023 Feb. 25.0 TT = JDT 2460000.5                 Alexandersen            
    M 349.59005              (2000.0)            P               Q                  
    n   0.41490389     Peri.    6.24559     -0.99992667     +0.00223443             
    a   1.7803459      Node   173.84470     -0.00563594     -0.95576868             
    e   0.3033419      Incl.    6.37298     +0.01071836     -0.29411094             
    P   2.38           H   24.49          G   0.15           U   8                  
    Residuals in seconds of arc
    230327 F52  0.0   0.2+    230328 T14  0.0   0.0     230328 695  0.3-  0.1+
    230327 F52  0.1+  0.1-    230328 T14  0.0   0.0     230329 695  0.1-  0.1+
    230327 F52  0.1-  0.0     230328 T14  0.0   0.0     230329 695  0.3-  0.0
    230328 T14  0.0   0.0     230328 T14  0.0   0.0     230329 695  0.2-  0.2+
    230328 T14  0.0   0.0     230328 695  0.6+  1.0-
    
    Ephemeris:
    2023 FR10                a,e,i = 1.78, 0.30, 6                   q = 1.2403
    Date    TT    R. A. (2000) Decl.     Delta      r    Elong.  Phase     V
    2023 02 28    11 32 41.4 -03 26 49   0.2737  1.2544   162.7    13.6    23.0
    ...
    2023 03 15    11 46 53.2 +01 42 25   0.2477  1.2418   177.5     2.0    22.2
    ...
    2023 03 23    11 54 18.7 +04 53 07   0.2451  1.2403   173.6     5.1    22.3
    ...
    2023 03 29    12 00 09.6 +07 07 55   0.2482  1.2417   167.6     9.9    22.6
    2023 03 30    12 01 10.4 +07 28 50   0.2491  1.2421   166.6    10.7    22.6
    2023 03 31    12 02 11.9 +07 49 12   0.2501  1.2426   165.7    11.5    22.7
    ...
    2023 04 06    12 08 37.7 +09 38 05   0.2587  1.2467   160.1    15.9    22.9
    ...
    2023 04 14    12 17 57.1 +11 22 00   0.2760  1.2554   153.3    21.0    23.2
    ...
    2023 04 29    12 37 47.6 +12 20 33   0.3250  1.2808   142.8    28.4    23.8
    
    M. P. C. Staff               (C) Copyright 2023 MPC           M.P.E.C. 2023-F224
    


    Read MPEC 2023-F223 Read MPEC 2023-F225


    MPEC number:

    Enter an MPEC number in one of the following forms:

    • 1997-B01 (the full form)
    • J97B01 (the packed version of the full form)
    • B01 (the abbreviated form)